This is the latest recevied weather packets stored in our database for station/object KA1AL. If no packets are shown the sender has not sent any weather packets the latest 10 day(s).
| Time | Temp. | Humidity | Pressure | Rain* | Wind** | Luminosity | Snow |
|---|---|---|---|---|---|---|---|
| 1777928126 | 12.22° C | 74% | 1004.5 hPa | 0 mm | - | 169 W/m² | - |
| 1777927823 | 12.22° C | 74% | 1004.6 hPa | 0 mm | - | 142 W/m² | - |
| 1777927521 | 12.22° C | 74% | 1004.4 hPa | 0 mm | - | 147 W/m² | - |
| 1777927220 | 12.22° C | 74% | 1004.7 hPa | 0 mm | - | 116 W/m² | - |
| 1777926918 | 12.22° C | 74% | 1004.6 hPa | 0 mm | - | 101 W/m² | - |
| 1777926615 | 12.22° C | 74% | 1004.2 hPa | 0 mm | - | 111 W/m² | - |
| 1777926310 | 12.78° C | 73% | 1004 hPa | 0 mm | - | 144 W/m² | - |
| 1777926007 | 12.22° C | 73% | 1004 hPa | 0 mm | - | 146 W/m² | - |
| 1777925704 | 12.22° C | 74% | 1004.2 hPa | 0 mm | - | 468 W/m² | - |
| 1777925402 | 12.22° C | 74% | 1004.2 hPa | 0 mm | - | 188 W/m² | - |
| 1777925098 | 12.78° C | 72% | 1004.4 hPa | 0 mm | - | 170 W/m² | - |
| 1777924795 | 12.22° C | 74% | 1004.1 hPa | 0 mm | - | 395 W/m² | - |
| 1777924491 | 11.67° C | 75% | 1004.5 hPa | 0 mm | - | 147 W/m² | - |
| 1777924188 | 11.67° C | 74% | 1004.4 hPa | 0 mm | - | 148 W/m² | - |
| 1777923884 | 11.67° C | 74% | 1003.9 hPa | 0 mm | - | 136 W/m² | - |
| 1777923580 | 12.22° C | 72% | 1004.1 hPa | 0 mm | - | 210 W/m² | - |
| 1777923277 | 12.22° C | 74% | 1004 hPa | 0 mm | - | 219 W/m² | - |
| 1777922976 | 11.67° C | 74% | 1004.2 hPa | 0 mm | - | 209 W/m² | - |
| 1777922672 | 12.22° C | 74% | 1004.2 hPa | 0 mm | - | 175 W/m² | - |
| 1777922372 | 12.22° C | 74% | 1003.9 hPa | 0 mm | - | 265 W/m² | - |
| 1777922069 | 11.67° C | 75% | 1004.1 hPa | 0 mm | - | 283 W/m² | - |
| 1777921764 | 11.67° C | 73% | 1003.9 hPa | 0 mm | - | 189 W/m² | - |
| 1777921460 | 12.22° C | 75% | 1004.1 hPa | 0 mm | - | 220 W/m² | - |
| 1777921157 | 11.67° C | 77% | 1004.2 hPa | 0 mm | - | 239 W/m² | - |
| 1777920854 | 11.67° C | 77% | 1004 hPa | 0 mm | - | 192 W/m² | - |
* Rain latest hour (hover to see other rain measurements)
** Current wind speed in m/s (hover to see current wind gust speed)